VK2HN Weather Reports


time (UTC)temp
F
wind
direction
speed
knots
gust
knots
rain 1hr
in
rain 24hr
in
rain mn
in
humidity
%
barometer
mb
20260831035958 77 140 0.9 6.1 0.00 0.00 0.00 47 1028.3
20260831035458 78 153 0.0 2.6 0.00 0.00 0.00 46 1028.4
20260831034958 77 165 0.0 0.0 0.00 0.00 0.00 47 1028.4
20260831034458 77 165 0.0 4.3 0.00 0.00 0.00 49 1028.5
20260831033958 77 120 0.0 3.5 0.00 0.00 0.00 51 1028.6
20260831033458 77 124 0.0 1.7 0.00 0.00 0.00 52 1028.6
20260831032958 77 124 0.0 0.0 0.00 0.00 0.00 49 1028.7
20260831032458 76 124 0.9 3.5 0.00 0.00 0.00 49 1029.5
20260831031958 77 121 0.9 6.1 0.00 0.00 0.00 51 1028.9
20260831031458 77 163 0.0 0.9 0.00 0.00 0.00 52 1028.9
20260831030958 77 98 0.0 3.5 0.00 0.00 0.00 49 1029.0
20260831030458 77 215 0.0 0.0 0.00 0.00 0.00 47 1029.0
20260831025958 76 215 0.0 0.9 0.00 0.00 0.00 53 1029.1
20260831025458 76 236 0.0 0.0 0.00 0.00 0.00 56 1029.4
20260831024958 76 236 0.0 0.0 0.00 0.00 0.00 53 1029.6
20260831024458 75 236 0.0 0.9 0.00 0.00 0.00 53 1029.6
20260831023958 76 236 0.9 1.7 0.00 0.00 0.00 54 1029.7
20260831023458 76 248 0.9 3.5 0.00 0.00 0.00 55 1029.8
20260831022958 75 204 0.9 3.5 0.00 0.00 0.00 57 1029.9
20260831022458 74 238 0.9 3.5 0.00 0.00 0.00 54 1030.1
20260831021958 74 223 0.0 2.6 0.00 0.00 0.00 57 1030.1
20260831021458 73 259 0.9 2.6 0.00 0.00 0.00 57 1030.2
20260831020958 73 264 0.0 3.5 0.00 0.00 0.00 56 1030.3
20260831020458 73 228 0.0 1.7 0.00 0.00 0.00 57 1030.5
20260831015958 73 227 0.0 0.0 0.00 0.00 0.00 57 1030.6
20260831015458 73 227 0.9 2.6 0.00 0.00 0.00 58 1030.5
20260831014958 73 167 0.9 3.5 0.00 0.00 0.00 60 1030.8
20260831014458 72 155 0.9 4.3 0.00 0.00 0.00 61 1030.8
20260831013958 72 209 0.9 3.5 0.00 0.00 0.00 61 1030.9
20260831013458 72 132 0.9 4.3 0.00 0.00 0.00 64 1031.0
20260831012958 72 252 0.0 0.0 0.00 0.00 0.00 60 1031.0
20260831012458 71 252 0.0 3.5 0.00 0.00 0.00 61 1031.1
20260831011958 71 169 0.0 0.0 0.00 0.00 0.00 61 1031.2
20260831011458 70 128 0.0 0.0 0.00 0.00 0.00 61 1031.3
20260831010958 70 130 0.0 0.0 0.00 0.00 0.00 63 1031.4
20260831010458 69 133 0.0 0.9 0.00 0.00 0.00 65 1031.4
20260831005958 68 133 0.0 2.6 0.00 0.00 0.00 67 1031.5
20260831005458 68 168 0.0 0.0 0.00 0.00 0.00 67 1031.5
20260831004958 67 169 0.0 0.0 0.00 0.00 0.00 68 1031.6
20260831004458 66 167 0.9 0.0 0.00 0.00 0.00 68 1031.6
20260831003958 66 119 0.9 2.6 0.00 0.00 0.00 69 1031.7
20260831003458 65 123 0.0 2.6 0.00 0.00 0.00 70 1031.8
20260831002958 64 124 0.0 0.0 0.00 0.00 0.00 72 1031.6
20260831002458 64 125 0.0 0.0 0.00 0.00 0.00 72 1031.7
20260831001958 63 125 0.0 0.0 0.00 0.00 0.00 73 1031.7
20260831001458 63 134 0.0 0.0 0.00 0.00 0.00 74 1031.7
20260831000958 63 132 0.0 0.0 0.00 0.00 0.00 72 1031.6
20260831000458 63 132 0.0 0.0 0.00 0.00 0.00 74 1031.6
20260830235958 63 134 0.0 2.6 0.00 0.00 0.00 75 1031.7
20260830235458 62 150 0.0 0.0 0.00 0.00 0.00 76 1031.6
20260830234958 61 157 0.0 0.0 0.00 0.00 0.00 77 1031.7
20260830234458 60 159 0.0 0.0 0.00 0.00 0.00 80 1031.6
20260830233958 59 104 0.0 0.0 0.00 0.00 0.00 82 1031.7
20260830233458 59 101 0.0 0.0 0.00 0.00 0.00 83 1031.7
20260830232958 58 102 0.0 0.0 0.00 0.00 0.00 82 1031.7
20260830232458 58 69 0.0 0.0 0.00 0.00 0.00 82 1031.8
20260830231958 57 69 0.0 0.0 0.00 0.00 0.00 83 1031.9
20260830231458 57 48 0.0 0.0 0.00 0.00 0.00 84 1032.0
20260830230958 56 47 0.0 0.0 0.00 0.00 0.00 84 1032.1
20260830230458 56 47 0.0 0.0 0.00 0.00 0.00 87 1032.2
20260830225958 55 52 0.0 0.0 0.00 0.00 0.00 88 1032.3
20260830225458 55 51 0.0 0.0 0.00 0.00 0.00 89 1032.1
20260830224958 55 86 0.0 0.0 0.00 0.00 0.00 91 1032.0
20260830224458 54 86 0.0 0.0 0.00 0.00 0.00 92 1032.0
20260830223958 54 86 0.0 0.0 0.00 0.00 0.00 93 1032.1
20260830223458 54 86 0.0 0.0 0.00 0.00 0.00 95 1032.2
20260830222958 53 88 0.0 0.0 0.00 0.00 0.00 98 1032.3
20260830222458 52 88 0.0 0.0 0.00 0.00 0.00 99 1032.4
20260830221958 51 88 0.0 0.0 0.00 0.00 0.00 100 1032.4
20260830221458 50 89 0.0 0.0 0.00 0.00 0.00 100 1032.3
20260830220958 49 94 0.0 0.0 0.00 0.00 0.00 100 1032.2
20260830220459 48 91 0.0 0.0 0.00 0.00 0.00 100 1032.1
20260830215958 48 91 0.0 0.0 0.00 0.00 0.00 100 1032.1
20260830215458 47 91 0.0 0.0 0.00 0.00 0.00 100 1032.0
20260830214959 46 91 0.0 0.0 0.00 0.00 0.00 99 1031.9
20260830214459 45 91 0.0 0.0 0.00 0.00 0.00 99 1031.7
20260830213959 44 91 0.0 0.0 0.00 0.00 0.00 99 1031.8
20260830213459 43 91 0.0 0.0 0.00 0.00 0.00 99 1032.0
20260830212959 43 91 0.0 0.0 0.00 0.00 0.00 99 1031.8
20260830212459 42 91 0.0 0.0 0.00 0.00 0.00 98 1031.9
20260830211958 42 91 0.0 0.0 0.00 0.00 0.00 98 1031.7
20260830211459 42 91 0.0 0.0 0.00 0.00 0.00 98 1031.8
20260830210959 42 91 0.0 0.0 0.00 0.00 0.00 98 1031.7
20260830210459 42 91 0.0 0.0 0.00 0.00 0.00 98 1031.7
20260830205959 41 91 0.0 0.0 0.00 0.00 0.00 98 1031.6
20260830205459 41 91 0.0 0.0 0.00 0.00 0.00 98 1031.4
20260830204959 41 91 0.0 0.0 0.00 0.00 0.00 98 1031.5
20260830204459 41 91 0.0 0.0 0.00 0.00 0.00 98 1031.4
20260830203959 41 91 0.0 0.0 0.00 0.00 0.00 98 1031.2
20260830203459 41 91 0.0 0.0 0.00 0.00 0.00 98 1031.3
20260830202959 41 91 0.0 0.0 0.00 0.00 0.00 98 1031.3
20260830202459 41 91 0.0 0.0 0.00 0.00 0.00 98 1031.3
20260830201959 41 91 0.0 0.0 0.00 0.00 0.00 98 1031.2
20260830201459 41 91 0.0 0.0 0.00 0.00 0.00 98 1031.2
20260830200959 41 91 0.0 0.0 0.00 0.00 0.00 98 1031.1
20260830200459 41 91 0.0 0.0 0.00 0.00 0.00 98 1031.0
20260830195959 41 91 0.0 0.0 0.00 0.00 0.00 97 1031.0
20260830195459 41 91 0.0 0.0 0.00 0.00 0.00 97 1030.9
20260830194959 41 91 0.0 0.0 0.00 0.00 0.00 98 1030.9
20260830194459 41 91 0.0 0.0 0.00 0.00 0.00 98 1030.8
20260830193959 41 91 0.0 0.0 0.00 0.00 0.00 98 1030.7
20260830193459 41 91 0.0 0.0 0.00 0.00 0.00 97 1030.6
20260830192959 42 91 0.0 0.0 0.00 0.00 0.00 97 1030.5
20260830192459 42 91 0.0 0.0 0.00 0.00 0.00 97 1030.6
20260830191959 42 91 0.0 0.0 0.00 0.00 0.00 97 1030.7
20260830191459 42 91 0.0 0.0 0.00 0.00 0.00 98 1030.5
20260830190959 42 91 0.0 0.0 0.00 0.00 0.00 98 1030.6
20260830190459 42 91 0.0 0.0 0.00 0.00 0.00 97 1030.6
20260830185959 42 91 0.0 0.0 0.00 0.00 0.00 97 1030.7
20260830185459 42 91 0.0 0.0 0.00 0.00 0.00 97 1030.7
20260830184959 42 91 0.0 0.0 0.00 0.00 0.00 98 1030.7
20260830184459 42 91 0.0 0.0 0.00 0.00 0.00 98 1030.7
20260830183959 42 91 0.0 0.0 0.00 0.00 0.00 98 1030.8
20260830183459 42 91 0.0 0.0 0.00 0.00 0.00 97 1030.8
20260830182959 42 91 0.0 0.0 0.00 0.00 0.00 97 1030.9
20260830182459 43 91 0.0 0.0 0.00 0.00 0.00 97 1031.0
20260830181959 42 91 0.0 0.0 0.00 0.00 0.00 97 1031.0
20260830181459 43 91 0.0 0.0 0.00 0.00 0.00 97 1030.9
20260830180959 43 91 0.0 0.0 0.00 0.00 0.00 97 1031.1
20260830180459 43 91 0.0 0.0 0.00 0.00 0.00 97 1030.9
20260830175959 43 91 0.0 0.0 0.00 0.00 0.00 97 1030.7
20260830175459 43 91 0.0 0.0 0.00 0.00 0.00 97 1030.8
20260830174959 43 91 0.0 0.0 0.00 0.00 0.00 97 1030.9
20260830174459 43 91 0.0 0.0 0.00 0.00 0.00 97 1031.0
20260830173959 43 91 0.0 0.0 0.00 0.00 0.00 97 1030.8
20260830173459 43 91 0.0 0.0 0.00 0.00 0.00 97 1031.0
20260830172959 43 91 0.0 0.0 0.00 0.00 0.00 97 1031.0
20260830172459 43 91 0.0 0.0 0.00 0.00 0.00 97 1031.2
20260830171959 43 91 0.0 0.0 0.00 0.00 0.00 97 1031.2
20260830171459 43 91 0.0 0.0 0.00 0.00 0.00 97 1031.3
20260830170959 44 91 0.0 0.0 0.00 0.00 0.00 97 1031.2
20260830170459 44 91 0.0 0.0 0.00 0.00 0.00 97 1031.1
20260830165959 44 91 0.0 0.0 0.00 0.00 0.00 97 1031.1
20260830165459 44 91 0.0 0.0 0.00 0.00 0.00 97 1031.1
20260830164959 44 91 0.0 0.0 0.00 0.00 0.00 97 1031.2
20260830164459 44 91 0.0 0.0 0.00 0.00 0.00 97 1031.2
20260830163959 44 91 0.0 0.0 0.00 0.00 0.00 97 1031.2
20260830163459 44 91 0.0 0.0 0.00 0.00 0.00 97 1031.1
20260830162959 44 91 0.0 0.0 0.00 0.00 0.00 97 1031.2
20260830162459 44 91 0.0 0.0 0.00 0.00 0.00 97 1031.2
20260830161959 44 91 0.0 0.0 0.00 0.00 0.00 97 1031.2
20260830161459 45 91 0.0 0.0 0.00 0.00 0.00 97 1031.2
20260830160959 45 91 0.0 0.0 0.00 0.00 0.00 97 1031.3
20260830160459 45 91 0.0 0.0 0.00 0.00 0.00 97 1031.3
20260830155959 45 91 0.0 0.0 0.00 0.00 0.00 97 1031.2
20260830155459 45 91 0.0 0.0 0.00 0.00 0.00 97 1031.2
20260830154959 45 91 0.0 0.0 0.00 0.00 0.00 97 1031.3
20260830154459 45 91 0.0 0.0 0.00 0.00 0.00 96 1031.3
20260830153959 45 91 0.0 0.0 0.00 0.00 0.00 96 1031.4
20260830153459 45 91 0.0 0.0 0.00 0.00 0.00 96 1031.4
20260830152959 45 91 0.0 0.0 0.00 0.00 0.00 96 1031.4
20260830152459 45 91 0.0 0.0 0.00 0.00 0.00 96 1031.3
20260830152002 46 91 0.0 0.0 0.00 0.00 0.00 96 1031.4
20260830151459 46 91 0.0 0.0 0.00 0.00 0.00 96 1031.4
20260830150959 46 91 0.0 0.0 0.00 0.00 0.00 97 1031.3
20260830150459 46 91 0.0 0.0 0.00 0.00 0.00 96 1031.4
20260830145959 46 91 0.0 0.0 0.00 0.00 0.00 96 1031.4
20260830145459 46 91 0.0 0.0 0.00 0.00 0.00 97 1031.5
20260830144959 47 91 0.0 0.0 0.00 0.00 0.00 97 1031.5
20260830144459 47 91 0.0 0.0 0.00 0.00 0.00 96 1031.4
20260830143959 47 91 0.0 0.0 0.00 0.00 0.00 97 1031.5
20260830143459 47 91 0.0 0.0 0.00 0.00 0.00 97 1031.5
20260830142959 47 91 0.0 0.0 0.00 0.00 0.00 97 1031.6
20260830142459 47 91 0.0 0.0 0.00 0.00 0.00 97 1031.5
20260830141959 47 91 0.0 0.0 0.00 0.00 0.00 97 1031.6
20260830141459 47 91 0.0 0.0 0.00 0.00 0.00 97 1031.5
20260830140959 47 91 0.0 0.0 0.00 0.00 0.00 96 1031.5
20260830140459 47 91 0.0 0.0 0.00 0.00 0.00 96 1031.5
20260830135959 47 92 0.0 0.0 0.00 0.00 0.00 96 1031.4
20260830135459 47 90 0.0 0.0 0.00 0.00 0.00 96 1031.2
20260830134959 48 90 0.0 0.0 0.00 0.00 0.00 96 1031.2
20260830134459 48 90 0.0 0.0 0.00 0.00 0.00 96 1031.1
20260830133959 48 90 0.0 0.0 0.00 0.00 0.00 96 1031.1
20260830133500 48 90 0.0 0.0 0.00 0.00 0.00 96 1031.1
20260830133000 48 90 0.0 0.0 0.00 0.00 0.00 96 1031.1
20260830132500 48 90 0.0 0.0 0.00 0.00 0.00 96 1031.1
20260830132000 48 90 0.0 0.0 0.00 0.00 0.00 96 1031.0
20260830131500 48 90 0.0 0.0 0.00 0.00 0.00 95 1031.1
20260830131000 48 90 0.0 0.0 0.00 0.00 0.00 95 1031.1
20260830130500 48 90 0.0 0.0 0.00 0.00 0.00 95 1031.1
20260830130000 49 90 0.0 0.0 0.00 0.00 0.00 95 1031.1
20260830125500 49 90 0.0 0.0 0.00 0.00 0.00 95 1031.1
20260830125000 49 90 0.0 0.0 0.00 0.00 0.00 95 1031.1
20260830124500 49 90 0.0 0.0 0.00 0.00 0.00 95 1031.0
20260830124000 49 90 0.0 0.0 0.00 0.00 0.00 95 1031.1
20260830123500 49 90 0.0 0.0 0.00 0.00 0.00 95 1031.0
20260830123000 49 90 0.0 0.0 0.00 0.00 0.00 95 1031.0
20260830122500 50 90 0.0 0.0 0.00 0.00 0.00 95 1030.9
20260830122000 50 90 0.0 0.0 0.00 0.00 0.00 95 1030.9
20260830121500 50 90 0.0 0.0 0.00 0.00 0.00 95 1031.0
20260830121000 50 90 0.0 0.0 0.00 0.00 0.00 94 1030.9
20260830120500 50 90 0.0 0.0 0.00 0.00 0.00 94 1030.9
20260830120000 50 90 0.0 0.0 0.00 0.00 0.00 94 1031.0
20260830115500 50 90 0.0 0.0 0.00 0.00 0.00 94 1031.0
20260830115000 50 90 0.0 0.0 0.00 0.00 0.00 93 1031.0
20260830114500 50 90 0.0 0.0 0.00 0.00 0.00 94 1030.9
20260830114000 51 90 0.0 0.0 0.00 0.00 0.00 94 1030.8
20260830113500 51 90 0.0 0.0 0.00 0.00 0.00 93 1030.9
20260830113000 51 90 0.0 0.0 0.00 0.00 0.00 93 1030.7
20260830112500 51 90 0.0 0.0 0.00 0.00 0.00 93 1030.6
20260830112000 51 90 0.0 0.0 0.00 0.00 0.00 93 1030.5
20260830111500 52 90 0.0 0.0 0.00 0.00 0.00 93 1030.7
20260830111000 52 90 0.0 0.0 0.00 0.00 0.00 92 1030.7
20260830110500 52 90 0.0 0.0 0.00 0.00 0.00 92 1030.7
20260830110000 52 90 0.0 0.0 0.00 0.00 0.00 92 1030.7
20260830105500 52 90 0.0 0.0 0.00 0.00 0.00 92 1030.7
20260830105000 52 90 0.0 0.0 0.00 0.00 0.00 91 1030.6
20260830104500 52 90 0.0 0.0 0.00 0.00 0.00 91 1030.6
20260830104000 53 90 0.0 0.0 0.00 0.00 0.00 91 1030.6
20260830103500 53 90 0.0 0.0 0.00 0.00 0.00 90 1030.5
20260830103000 53 90 0.0 0.0 0.00 0.00 0.00 90 1030.3
20260830102500 53 90 0.0 0.0 0.00 0.00 0.00 90 1030.3
20260830102000 54 90 0.0 0.0 0.00 0.00 0.00 90 1030.4
20260830101500 54 90 0.0 0.0 0.00 0.00 0.00 89 1030.3
20260830101000 54 90 0.0 0.0 0.00 0.00 0.00 89 1030.1
20260830100500 54 90 0.0 0.0 0.00 0.00 0.00 89 1030.1
20260830100000 54 90 0.0 0.0 0.00 0.00 0.00 89 1030.3
20260830095500 55 90 0.0 0.0 0.00 0.00 0.00 88 1030.2
20260830095000 55 90 0.0 0.0 0.00 0.00 0.00 87 1030.2
20260830094500 55 90 0.0 0.0 0.00 0.00 0.00 88 1030.1
20260830094000 55 90 0.0 0.0 0.00 0.00 0.00 88 1029.9
20260830093500 56 90 0.0 0.0 0.00 0.00 0.00 87 1030.0
20260830093000 56 90 0.0 0.0 0.00 0.00 0.00 87 1029.9
20260830092500 56 90 0.0 0.0 0.00 0.00 0.00 86 1029.9
20260830092000 56 90 0.0 0.0 0.00 0.00 0.00 86 1029.9
20260830091500 57 90 0.0 0.0 0.00 0.00 0.00 86 1029.9
20260830091000 57 90 0.0 0.0 0.00 0.00 0.00 86 1029.9
20260830090500 57 90 0.0 0.0 0.00 0.00 0.00 85 1029.8
20260830090000 58 90 0.0 0.0 0.00 0.00 0.00 85 1029.8
20260830085500 58 90 0.0 0.0 0.00 0.00 0.00 83 1029.8
20260830085000 58 90 0.0 0.0 0.00 0.00 0.00 80 1029.6
20260830084500 59 90 0.0 0.0 0.00 0.00 0.00 80 1029.6
20260830084000 59 90 0.0 0.0 0.00 0.00 0.00 81 1029.6
20260830083500 59 90 0.0 0.0 0.00 0.00 0.00 81 1029.5
20260830083000 60 90 0.0 0.0 0.00 0.00 0.00 81 1029.3
20260830082500 60 90 0.0 0.0 0.00 0.00 0.00 79 1029.3
20260830082000 60 90 0.0 0.0 0.00 0.00 0.00 76 1029.2
20260830081500 61 90 0.0 0.0 0.00 0.00 0.00 77 1029.2
20260830081000 61 90 0.0 0.0 0.00 0.00 0.00 77 1029.1
20260830080500 62 90 0.0 0.0 0.00 0.00 0.00 76 1029.0
20260830080000 62 90 0.0 0.0 0.00 0.00 0.00 73 1029.1
20260830075500 62 90 0.0 0.0 0.00 0.00 0.00 72 1029.0
20260830075000 63 90 0.0 0.0 0.00 0.00 0.00 70 1028.9
20260830074500 64 90 0.0 0.0 0.00 0.00 0.00 67 1028.8
20260830074000 64 94 0.0 0.0 0.00 0.00 0.00 67 1028.9
20260830073500 65 94 0.0 0.0 0.00 0.00 0.00 61 1028.9
20260830073000 66 94 0.0 0.0 0.00 0.00 0.00 59 1028.8
20260830072500 66 94 0.0 0.0 0.00 0.00 0.00 60 1028.7
20260830072000 67 94 0.0 0.0 0.00 0.00 0.00 56 1028.9
20260830071500 67 94 0.0 0.0 0.00 0.00 0.00 56 1028.9
20260830071000 68 94 0.0 0.0 0.00 0.00 0.00 58 1028.7
20260830070500 69 94 0.0 0.0 0.00 0.00 0.00 50 1028.7
20260830070000 70 95 0.0 0.0 0.00 0.00 0.00 46 1028.7
20260830065500 70 95 0.0 0.0 0.00 0.00 0.00 46 1028.6
20260830065000 71 92 0.0 0.9 0.00 0.00 0.00 46 1028.6
20260830064500 71 92 0.0 3.5 0.00 0.00 0.00 44 1028.6
20260830064000 71 124 0.0 3.5 0.00 0.00 0.00 43 1028.6
20260830063500 72 127 0.0 2.6 0.00 0.00 0.00 43 1028.6
20260830063000 72 121 0.9 3.5 0.00 0.00 0.00 42 1028.5
20260830062500 72 132 0.0 3.5 0.00 0.00 0.00 43 1028.4
20260830062000 72 126 0.9 0.0 0.00 0.00 0.00 44 1028.5
20260830061500 72 126 0.9 4.3 0.00 0.00 0.00 45 1028.6
20260830061000 72 131 0.9 3.5 0.00 0.00 0.00 46 1028.6
20260830060500 72 127 0.0 0.0 0.00 0.00 0.00 46 1028.5
20260830060000 72 121 0.9 0.9 0.00 0.00 0.00 43 1028.6
20260830055500 72 122 0.9 3.5 0.00 0.00 0.00 43 1028.5
20260830055000 73 122 0.9 4.3 0.00 0.00 0.00 43 1028.5
20260830054500 73 107 0.0 0.0 0.00 0.00 0.00 44 1028.5
20260830054000 73 111 0.0 0.0 0.00 0.00 0.00 44 1028.5
20260830053500 73 135 0.0 0.0 0.00 0.00 0.00 44 1028.5
20260830053000 73 134 0.0 3.5 0.00 0.00 0.00 44 1028.5
20260830052500 73 148 0.0 2.6 0.00 0.00 0.00 43 1028.5
20260830052000 74 178 0.0 2.6 0.00 0.00 0.00 43 1028.5
20260830051500 74 173 0.9 0.9 0.00 0.00 0.00 44 1028.6
20260830051000 74 172 0.9 6.1 0.00 0.00 0.00 42 1028.6
20260830050500 75 120 0.9 5.2 0.00 0.00 0.00 43 1028.6
20260830050000 75 114 0.0 7.0 0.00 0.00 0.00 43 1028.7
20260830045500 74 140 0.9 0.0 0.00 0.00 0.00 42 1028.7
20260830045000 74 139 0.9 3.5 0.00 0.00 0.00 44 1028.6
20260830044500 75 66 0.9 4.3 0.00 0.00 0.00 41 1028.6
20260830044000 75 348 0.0 2.6 0.00 0.00 0.00 39 1028.6
20260830043500 75 101 0.0 0.0 0.00 0.00 0.00 46 1028.6
20260830043000 74 101 0.9 2.6 0.00 0.00 0.00 44 1028.8
20260830042500 75 101 0.9 2.6 0.00 0.00 0.00 47 1028.7
20260830042000 75 74 0.9 6.1 0.00 0.00 0.00 42 1028.8
20260830041501 75 76 0.0 3.5 0.00 0.00 0.00 47 1028.8
20260830041000 75 161 0.0 5.2 0.00 0.00 0.00 49 1028.8
20260830040500 75 139 0.9 2.6 0.00 0.00 0.00 46 1028.8